Regional Weather Roundup
Issued by NWS Northern Indiana

Home | Current Version | Previous Version | Text Only | Print | Product List | Glossary On
Versions: 1 2 3 4 5 6 7 8 9 10 11 12 13 14 15 16 17 18 19 20 21 22 23 24 25 26 27 28 29 30 31 32 33 34 35 36 37 38 39 40 41 42 43 44 45 46 47 48 49 50
000
ASUS43 KIWX 140610
RWRIWX

KIWX WEATHER ROUNDUP
NATIONAL WEATHER SERVICE NORTHERN INDIANA
200 AM EDT MON JUL 14 2014

NOTE: "FAIR" INDICATES FEW OR NO CLOUDS BELOW 12,000 FEET WITH NO
SIGNIFICANT WEATHER AND/OR OBSTRUCTIONS TO VISIBILITY.

* THESE STATIONS ARE NOT UNDER NWS QUALITY CONTROL. THEY ALSO MAY NOT
  REPORT WEATHER SUCH AS PRECIPITATION OR FOG.

INZ001>027-140700-
NORTHERN INDIANA

CITY           SKY/WX    TMP DP  RH WIND       PRES   REMARKS
GARY*          MOCLDY    73  65  75 W6        29.90F
VALPARAISO     PTCLDY    70  66  87 W8        29.91R
6HR MIN TEMP:  70; 6HR MAX TEMP:  80;

MICHIGAN CITY* PTCLDY    72  61  68 W6        29.89F
LAPORTE*       PTCLDY    70  65  84 W6        29.91S
6HR MIN TEMP:  70; 6HR MAX TEMP:  79;

KNOX*          CLOUDY    70  66  88 W5        29.89S
6HR MIN TEMP:  49; 6HR MAX TEMP:  86;

SOUTH BEND     MOCLDY    72  65  78 SW6       29.89S
6HR MIN TEMP:  72; 6HR MAX TEMP:  80; 6HR PCP: TRACE;

GOSHEN         MOCLDY    71  67  87 SW8       29.89S
6HR MIN TEMP:  70; 6HR MAX TEMP:  79;

MONTICELLO*    PTCLDY    68  65  90 CALM      29.90F
6HR MIN TEMP:  67; 6HR MAX TEMP:  79;

LOGANSPORT*    PTCLDY    63  61  94 CALM      29.91F
ROCHESTER*     MOCLDY    73  66  78 SW5       29.90F
WARSAW*        CLOUDY    72  66  83 W6        29.89F
ANGOLA*        CLOUDY    68  59  73 SW3       29.89S
FORT WAYNE     MOCLDY    67  64  90 SW5       29.91F
6HR MIN TEMP:  67; 6HR MAX TEMP:  82;

HUNTINGTON*    PTCLDY    67  66  94 CALM      29.90F
6HR MIN TEMP:  66; 6HR MAX TEMP:  79;

PERU/GRISSOM   PTCLDY    68  68 100 W6        29.90F
6HR MIN TEMP:  65; 6HR MAX TEMP:  80;

MARION*        MOCLDY    64  63  96 CALM      29.92F
6HR MIN TEMP:  32; 6HR MAX TEMP:  89;


$$
INZ028>050-140700-
CENTRAL INDIANA

CITY           SKY/WX    TMP DP  RH WIND       PRES   REMARKS
LAFAYETTE      PTCLDY    66  65  96 CALM      29.90F
6HR MIN TEMP:  65; 6HR MAX TEMP:  76;

KOKOMO*        MOCLDY    66  63  88 CALM      29.91F
6HR MIN TEMP:  66; 6HR MAX TEMP:  82;

MUNCIE*        MOCLDY    68  64  87 CALM      29.92S
6HR MIN TEMP:  68; 6HR MAX TEMP:  81;

INDIANAPOLIS   MOCLDY    72  69  90 NW5       29.90F
6HR MIN TEMP:  71; 6HR MAX TEMP:  81;


$$
MIZ043>046-050>051-056>058-064>065-071>073-077>080-140700-
SOUTHWEST LOWER MICHIGAN

CITY           SKY/WX    TMP DP  RH WIND       PRES   REMARKS
BATTLE CREEK   PTCLDY    67  63  87 S6        29.89S
6HR MIN TEMP:  67; 6HR MAX TEMP:  78; 6HR PCP:  0.01;

BENTON HARBOR  CLOUDY    67  65  93 CALM      29.87S
6HR MIN TEMP:  67; 6HR MAX TEMP:  77;

COLDWATER*     CLOUDY    71  64  79 CALM      29.89S
6HR MIN TEMP:  67; 6HR MAX TEMP:  77;

HILLSDALE*     CLOUDY    68  64  84 N10       29.91R
HOLLAND        PTCLDY    68  64  87 CALM      29.88S
6HR MIN TEMP:  67; 6HR MAX TEMP:  79;

GRAND RAPIDS   MOCLDY    68  63  84 CALM      29.87F
6HR MIN TEMP:  67; 6HR MAX TEMP:  77;

KALAMAZOO      LGT RAIN  69  65  86 SW8       29.89R
6HR MIN TEMP:  68; 6HR MAX TEMP:  78; 6HR PCP:  0.01;

STURGIS*       MOCLDY    72  66  83 W5        29.88S
THREE RIVERS*  LGT RAIN  69  67  93 W5        29.89R
6HR MIN TEMP:  69; 6HR MAX TEMP:  78;


$$
OHZ001>008-015>018-024>025-140700-
NORTHWEST OHIO

CITY           SKY/WX    TMP DP  RH WIND       PRES   REMARKS
WAUSEON*       FAIR      64  63  94 CALM      29.89S
DEFIANCE       PTCLDY    65  62  90 CALM      29.89S
6HR MIN TEMP:  65; 6HR MAX TEMP:  82;

FINDLAY        CLEAR     68  63  84 CALM      29.89F
6HR MIN TEMP:  66; 6HR MAX TEMP:  83;

TOLEDO EXPRESS PTCLDY    64  62  93 CALM      29.88F
6HR MIN TEMP:  63; 6HR MAX TEMP:  82;

TOLEDO METCALF CLEAR     67  61  81 CALM      29.89F
6HR MIN TEMP:  66; 6HR MAX TEMP:  83;

LIMA           CLEAR     70  66  87 S5        29.91F
6HR MIN TEMP:  69; 6HR MAX TEMP:  82;


$$
&&


USA.gov is the U.S. government's official web portal to all federal, state and local government web resources and services.